Overview Statistics Trail Chart Weather Telemetry Raw packets
 

This is the latest recevied weather packets stored in our database for station/object IU3OVK-13. If no packets are shown the sender has not sent any weather packets the latest 10 day(s).

<< 18 19 20 21 22 23 24 >>
Time Temp. Humidity Pressure Rain* Wind** Luminosity Snow
1788263354 33.33° C 87% 1007.9 hPa - - - -
1788262733 31.11° C 91% 1014.4 hPa - - - -
1788262113 33.33° C 82% 1005.8 hPa - - - -
1788261493 33.33° C 85% 1010.7 hPa - - - -
1788260873 33.33° C 85% 1010.8 hPa - - - -
1788260251 40° C 77% 993.2 hPa - - - -
1788259630 42.78° C 71% 964.7 hPa - - - -
1788259011 41.11° C 74% 973.8 hPa - - - -
1788257780 38.33° C 83% 994.6 hPa - - - -
1788257150 37.78° C 80% 982.3 hPa - - - -
1788255909 38.33° C 87% 995.4 hPa - - - -
1788255289 38.33° C 87% 995.3 hPa - - - -
1788254667 29.44° C 99% 1013.5 hPa - - - -
1788254047 28.89° C 99% 1012.8 hPa - - - -
1788253426 28.89° C 99% 1013.3 hPa - - - -
1788252806 28.33° C 99% 1013.1 hPa - - - -
1788252186 31.11° C 99% 1011.8 hPa - - - -
1788251566 31.11° C 99% 1011.9 hPa - - - -
1788250944 25° C 99% 1014.2 hPa - - - -
1788250323 26.11° C 99% 1014.1 hPa - - - -
1788249703 26.11° C 99% 1014.2 hPa - - - -
1788249081 32.22° C 99% 1010.1 hPa - - - -
1788248462 27.78° C 99% 1014 hPa - - - -
1788247841 25° C 99% 1013.1 hPa - - - -
1788247221 23.33° C 99% 1012.9 hPa - - - -

* Rain since midnight (hover to see other rain measurements)
** Current wind speed in m/s (hover to see current wind gust speed)